Pensacola, FL

6:14 AM CDT on September 30, 2016 (GMT -0500)
Pensacola Naval Air Station

Weather History for KNPA - November, 2012

Change the Weather History Date:

Wednesday, November 14, 2012

  Actual Average Record
Temperature  
Mean Temperature 52 °F -  
Max Temperature 64 °F 69 °F 79 °F (2008)
Min Temperature 39 °F 50 °F 33 °F (2014)
Degree Days  
Heating Degree Days 14    
Growing Degree Days 2 (Base 50)    
Moisture  
Dew Point 45 °F    
Average Humidity 78    
Maximum Humidity 100    
Minimum Humidity 56    
Precipitation  
Precipitation 0.00 in - - ()
Sea Level Pressure  
Sea Level Pressure 30.23 in    
Wind  
Wind Speed 6 mph (North)    
Max Wind Speed 9 mph    
Max Gust Speed -    
Visibility 10 miles    
Events      
Averages and records for this station are not official NWS values.
T = Trace of Precipitation, MM = Missing Value Source: NWS Daily Summary

Daily Weather History Graph

Daily Weather History Graph

Search for Another Location

Airport or City:

Trip Planner

Search our weather history database for the weather conditions in past years. The results will help you decide how hot, cold, wet, or windy it might be!

Date:

Astronomy

Nov. 14, 2012 Rise Set
Actual Time 6:14 AM CST 4:52 PM CST
Civil Twilight 5:49 AM CST 5:18 PM CST
Nautical Twilight 5:20 AM CST 5:47 PM CST
Astronomical Twilight 4:51 AM CST 6:15 PM CST
Moon 6:59 AM CST (11/14) 5:45 PM CST (11/14)
Length of Visible Light 11h 28m
Length of Day
10h 38m
New Moon, 1% of the Moon is Illuminated
Nov 14
New Moon
Nov 20
First Quarter
Nov 28
Full
Dec 6
Last Quarter
Dec 13
New

Hourly Weather History & Observations

Time (CST) Temp. Windchill Dew Point Humidity Pressure Visibility Wind Dir Wind Speed Gust Speed Precip Events Conditions
12:56 AM 43.0 °F 38.8 °F 33.1 °F 68% 30.23 in 10.0 mi North 6.9 mph - N/A   Clear
1:56 AM 42.1 °F 38.4 °F 33.1 °F 70% 30.23 in 10.0 mi North 5.8 mph - N/A   Clear
2:56 AM 42.1 °F 38.4 °F 33.1 °F 70% 30.23 in 10.0 mi North 5.8 mph - N/A   Clear
3:56 AM 42.1 °F 38.4 °F 33.1 °F 70% 30.22 in 10.0 mi North 5.8 mph - N/A   Clear
4:56 AM 39.9 °F - 33.1 °F 77% 30.24 in 10.0 mi Calm Calm - N/A   Clear
5:56 AM 39.0 °F 35.7 °F 33.1 °F 79% 30.25 in 10.0 mi NNW 4.6 mph - N/A   Mostly Cloudy
6:56 AM 41.0 °F 37.1 °F 34.0 °F 76% 30.26 in 10.0 mi NNW 5.8 mph - N/A   Mostly Cloudy
7:56 AM 42.1 °F 39.2 °F 35.1 °F 76% 30.27 in 10.0 mi North 4.6 mph - N/A   Mostly Cloudy
8:56 AM 48.9 °F - 39.9 °F 71% 30.27 in 10.0 mi NNE 6.9 mph - N/A   Mostly Cloudy
9:56 AM 55.9 °F - 44.1 °F 64% 30.26 in 10.0 mi Variable 4.6 mph - N/A   Mostly Cloudy
10:56 AM 57.9 °F - 46.0 °F 65% 30.26 in 10.0 mi SSW 8.1 mph - N/A   Mostly Cloudy
11:56 AM 63.0 °F - 46.9 °F 56% 30.22 in 10.0 mi NNE 9.2 mph - N/A   Scattered Clouds
12:56 PM 64.9 °F - 48.9 °F 56% 30.20 in 10.0 mi Variable 4.6 mph - N/A   Scattered Clouds
1:56 PM 62.1 °F - 51.1 °F 67% 30.19 in 10.0 mi SSE 9.2 mph - N/A   Scattered Clouds
2:56 PM 62.1 °F - 51.1 °F 67% 30.19 in 10.0 mi SSE 4.6 mph - N/A   Scattered Clouds
3:56 PM 62.1 °F - 51.1 °F 67% 30.19 in 10.0 mi Calm Calm - N/A   Scattered Clouds
4:56 PM 57.9 °F - 53.1 °F 84% 30.19 in 10.0 mi ENE 6.9 mph - N/A   Partly Cloudy
5:56 PM 57.0 °F - 53.1 °F 87% 30.22 in 10.0 mi NNE 6.9 mph - N/A   Clear
6:56 PM 54.0 °F - 52.0 °F 93% 30.22 in 10.0 mi NE 6.9 mph - N/A   Scattered Clouds
7:56 PM 54.0 °F - 52.0 °F 93% 30.23 in 10.0 mi NE 8.1 mph - N/A   Mostly Cloudy
8:56 PM 55.0 °F - 53.1 °F 93% 30.23 in 9.0 mi NNE 5.8 mph - N/A   Mostly Cloudy
9:46 PM 53.6 °F - 53.6 °F 100% 30.22 in 9.0 mi North 3.5 mph - N/A   Overcast
9:56 PM 54.0 °F - 52.0 °F 93% 30.23 in 9.0 mi NNW 4.6 mph - N/A   Overcast
10:56 PM 54.0 °F - 52.0 °F 93% 30.22 in 9.0 mi NNW 3.5 mph - N/A   Overcast
11:03 PM 53.6 °F - 53.6 °F 100% 30.22 in 9.0 mi NNW 3.5 mph - N/A   Overcast
11:56 PM 53.1 °F - 52.0 °F 96% 30.21 in 8.0 mi NNW 4.6 mph - N/A   Scattered Clouds